Home   Weather   Minden   Past weeks

Flag for Germany Past Weather in Minden, North Rhine-Westphalia, Germany — Yesterday and Last 2 Weeks

Now
46 °F

Partly cloudy.


Feels Like: 41 °F
Forecast: 43 / 51 °F
Wind: 13 mph from Southwest

Location: Bueckeburg

Current Time: Feb 22, 2017 at 12:33:11 am

Latest Report: Feb 21, 2017 at 11:20 pm


Visibility: N/A

Pressure: 29.80 "Hg

Humidity: 76%

Dew Point: 39 °F

Location of MindenLocation

Past Weather in Minden — Graph

°F

Minden Temperature Yesterday

Maximum temperature yesterday: 50 °F (at 12:20 am)
Minimum temperature yesterday: 43 °F (at 7:20 pm)
Average temperature yesterday: 48 °F

High & Low Weather Summary for the Past Weeks

 TemperatureHumidityPressure
High54 °F (Feb 15, 3:20 pm)100% (Feb 17, 11:20 am)30.54 "Hg (Feb 17, 11:20 am)
Low23 °F (Feb 14, 4:20 am)41% (Feb 15, 3:20 pm)29.80 "Hg (Feb 20, 9:20 pm)
Average37 °F81%30.26 "Hg
* Reported Feb 6 10:20 pm — Feb 21 10:20 pm, Minden, Weather by CustomWeather, © 2017

Note: Actual official high and low records may vary slightly from our data, if they occured in-between our weather recording intervals... More about our weather records

Advertising

Minden Weather History for the Previous 24 Hours

Scroll right to see more
 ConditionsComfort  
Time TempWeatherWind HumidityBarometerVisibility
10:20 pm
Tue, Feb 21
45 °FPassing clouds.13 mph81%29.86 "HgN/A
9:20 pm45 °FPassing clouds.10 mph76%29.86 "HgN/A
8:20 pm43 °FPassing clouds.9 mph81%29.89 "HgN/A
7:20 pm43 °FPassing clouds.7 mph76%29.89 "HgN/A
6:20 pm45 °FPassing clouds.12 mph71%29.92 "HgN/A
5:20 pm46 °FScattered clouds.12 mph66%29.92 "HgN/A
4:20 pm48 °FScattered clouds.15 mph66%29.89 "HgN/A
3:20 pm50 °FPartly sunny.20 mph67%29.92 "HgN/A
2:20 pm48 °FBroken clouds.21 mph71%29.89 "HgN/A
1:20 pm50 °FBroken clouds.22 mph62%29.89 "HgN/A
1:04 pm50 °FBroken clouds.23 mph67%29.89 "HgN/A
12:20 pm48 °FBroken clouds.23 mph71%29.89 "HgN/A
11:20 am48 °FBroken clouds.23 mph71%29.89 "HgN/A
10:20 am48 °FPartly sunny.18 mph82%29.86 "HgN/A
9:20 am46 °FPartly sunny.16 mph87%29.86 "HgN/A
8:20 am46 °FPartly sunny.18 mph87%29.86 "HgN/A
7:20 am46 °FPassing clouds.20 mph87%29.83 "HgN/A
6:38 am48 °FPassing clouds.21 mph82%29.83 "HgN/A
6:20 am48 °FPartly cloudy.18 mph82%29.83 "HgN/A
5:20 am48 °FPassing clouds.21 mph87%29.80 "HgN/A
4:20 am48 °FCool.13 mph94%29.80 "Hg4 mi
3:20 am50 °FCool.10 mph94%29.80 "Hg4 mi
2:20 am50 °FCool.10 mph94%29.80 "Hg4 mi
1:20 am50 °FCool.15 mph94%29.83 "Hg4 mi
12:20 am50 °FCool.17 mph100%29.80 "Hg1 mi
Weather by CustomWeather, © 2017

See weather overviewHow to use our weather pages